Regional Weather Roundup
Issued by NWS

Home | Current Version | Previous Version | Graphics & Text | Print | Product List | Glossary On
Versions: 1 2 3 4 5 6 7 8 9 10 11 12 13 14 15 16 17 18 19 20 21 22 23 24 25 26 27 28 29 30 31 32 33 34 35 36 37 38 39 40 41 42 43 44 45 46 47 48 49
000
ASUS45 KBOU 241907
RWRCO

WEATHER ROUNDUP FOR COLORADO
NATIONAL WEATHER SERVICE DENVER/BOULDER CO
1200 PM MST SAT JAN 24 2015

NOTE: "FAIR" INDICATES FEW OR NO CLOUDS BELOW 12000 FEET WITH NO
SIGNIFICANT WEATHER AND/OR OBSTRUCTIONS TO VISIBILITY.

COZ001>005-013-030-031-242000-
...NORTHWEST COLORADO...

CITY           SKY/WX    TMP DP  RH WIND       PRES   REMARKS
CRAIG          CLOUDY    21  12  68 SW3       30.35F
HAYDEN         CLOUDY    19   7  58 E12       30.34F WCI   7
MEEKER         CLOUDY    22  10  60 CALM      30.36F
MOUNT WERNER   NOT AVBL
STEAMBOAT SPGS CLOUDY    16   6  63 CALM      30.36F
WALDEN         CLOUDY    30  14  51 S15G22    30.25F WCI  19
$$

COZ006>008-011-242000-
...WEST CENTRAL VALLEYS...

CITY           SKY/WX    TMP DP  RH WIND       PRES   REMARKS
GRAND JUNCTION PTSUNNY   35  11  36 SE8       30.38F WCI  29
MONTROSE       CLOUDY    33  10  38 CALM      30.41F
EAGLE          PTSUNNY   18  10  73 CALM      30.43F
RIFLE          CLOUDY    29  11  47 N3        30.41F
DELTA          CLOUDY    33  15  48 CALM      30.42F
NUCLA          CLOUDY    34  10  37 CALM      30.43F
$$

COZ017>023-064>068-242000-
...SOUTHWEST COLORADO...

CITY           SKY/WX    TMP DP  RH WIND       PRES   REMARKS
DURANGO        CLOUDY    32  17  54 CALM      30.33F
CORTEZ         SUNNY     40  14  34 VRB3      30.35F
PAGOSA SPRINGS CLOUDY    34  14  44 S6        30.32F WCI  29
TELLURIDE      CLOUDY   N/A N/A N/A CALM      30.37F
WOLF CREEK PAS NOT AVBL
$$

COZ009-010-012-014-032>034-037-058>063-242000-
...CENTRAL COLORADO...

CITY           SKY/WX    TMP DP  RH WIND       PRES   REMARKS
ASPEN          CLOUDY    27  10  49 NW3       30.32F
BUENA VISTA    CLOUDY    33  15  46 E8        30.22F WCI  26
COPPER MTN     CLOUDY    27   3  36 W7G16     30.32F WCI  19
BERTHOUD PASS  PTSUNNY   16  10  79 NW38G53   30.22R HAZE    WCI  -6
COTTONWOOD PAS CLOUDY    37  -6  15 NW3       30.24F
GUNNISON       CLOUDY     3 -18  36 E3        30.46F
KREMMLING      CLOUDY    10   1  67 CALM      30.40F
LEADVILLE      CLOUDY    31   2  29 N13       30.27F WCI  21
MONARCH PASS   CLOUDY    16   5  62 MISG      30.39F
SALIDA         CLOUDY    37  13  37 N7        30.29F
SUNLIGHT       CLOUDY    28  14  54 CALM      30.35F
WILKERSON PASS CLOUDY    30  -4  22 NW14G26   30.24F WCI  20
$$

COZ069>075-242000-
...SAN LUIS VALLEY/SANGRE DE CRISTO MOUNTAINS...

CITY           SKY/WX    TMP DP  RH WIND       PRES   REMARKS
ALAMOSA        CLOUDY    34  11  38 VRB6      30.31F WCI  29
LA VETA PASS   NOT AVBL
SAGUACHE       NOT AVBL
$$

COZ035-036-038>040-242000-
...NORTHERN COLORADO FRONT RANGE...

CITY           SKY/WX    TMP DP  RH WIND       PRES   REMARKS
DENVER INTL AP CLOUDY    51  13  21 SW10      30.01F
DMNS CITY PARK   N/A     48  13  25 S5        30.00F
AURORA         PTSUNNY   49  14  25 SW6       30.03F
FRONT RANGE AP NOT AVBL
ERIE MUNI ARPT CLOUDY    54  10  17 W14G20    30.00F
BOULDER MUN AP CLOUDY    54  14  20 W25G33    30.01F
CENTENNIAL     CLOUDY    47  16  29 SW8       30.03F
BROOMFIELD     PTSUNNY   50  12  22 W17       30.03F
FORT COLLINS   CLOUDY    39  21  48 CALM      30.02F
LONGMONT       CLOUDY    51  19  28 SW12      30.00F
$$

COZ041-046-047-076>085-087-088-242000-
...PIKES PEAK/PALMER DIVIDE AND SOUTHERN FOOTHILLS...

CITY           SKY/WX    TMP DP  RH WIND       PRES   REMARKS
COLO. SPRINGS  CLOUDY    52  13  21 S7        30.05F
A. F. ACADEMY  CLOUDY    50   8  18 VRB3      30.04F
ELLICOTT       CLOUDY   N/A N/A N/A W6        30.03F
FALCON         CLOUDY    52  11  19 W8        30.07F
FORT CARSON    CLOUDY    50  21  31 NE3       30.03F
LIMON          MOSUNNY   53  12  19 W14       30.01F
MONUMENT HILL  CLOUDY    46  19  34 NW6       30.05F
TRINIDAD       PTSUNNY   46  24  42 S5        30.07F
$$

COZ042>045-048>051-090-091-242000-
...NORTHEAST COLORADO...

CITY           SKY/WX    TMP DP  RH WIND       PRES   REMARKS
GREELEY ARPT   CLOUDY    36  23  60 CALM      29.99F
AKRON          PTSUNNY   41  27  57 W12       29.97F
BURLINGTON     PTSUNNY   52  29  41 W10       29.97F
WRAY           CLOUDY    54  22  29 W12       29.95F
STERLING       PTSUNNY   39  32  75 S9        29.95F
HOLYOKE        CLOUDY    52  23  32 W17G24    29.93F
FORT MORGAN    PTSUNNY   40  27  57 W10       30.00F
$$

COZ086-089-092>099-242000-
...SOUTHEAST COLORADO...

CITY           SKY/WX    TMP DP  RH WIND       PRES   REMARKS
PUEBLO         CLOUDY    50  26  39 W12       30.02F
LA JUNTA       PTSUNNY   48  27  44 SW14      30.02F
LAMAR          MOSUNNY   49  27  42 W15       30.01F
SPRINGFIELD      N/A     49  27  42 W7        30.02F
$$


USA.gov is the U.S. government's official web portal to all federal, state and local government web resources and services.